User: anonymous   Login
Location: Caltech
(34.1382°N, 118.1253°W)
Time: 03:42:07
(UTC-08:00)
Language:

COSMOS 2428 - Orbit

View from above orbital plane
View from above orbital plane
View from above satellite
View from above satellite

Ground track
Ground track

The orbit data is extracted from the following two-line orbital elements,

1 31792U 07029A   15032.07158317  .00000164  00000-0  11440-3 0  4116
2 31792 070.9829 070.1360 0008995 169.7291 279.9401 14.12524340391632
Epoch (UTC): 01 February 2015 01:43:04
Eccentricity: 0.0008995
inclination: 70.9829°
perigee height: 844 km
apogee height: 857 km
right ascension of ascending node: 70.1360°
argument of perigee: 169.7291°
revolutions per day: 14.12524340
mean anomaly at epoch: 279.9401°
orbit number at epoch: 39163

The dashed part of the orbit path shows where the satellite is in the earth's shadow,  

DLR